Change the Weather History Date:

Thursday, March 7, 2013

  Actual Average Record
Temperature  
Mean Temperature 53 °F 58 °F  
Max Temperature 70 °F 69 °F 89 °F (1911)
Min Temperature 36 °F 46 °F 24 °F (1943)
Degree Days  
Heating Degree Days 12 9  
Month to date heating degree days 95 65  
Since 1 July heating degree days 1361 1699  
Cooling Degree Days 0 1  
Month to date cooling degree days 0 7  
Year to date cooling degree days 22 26  
Growing Degree Days 3 (Base 50)    
Moisture  
Dew Point 32 °F    
Average Humidity 52    
Maximum Humidity 82    
Minimum Humidity 22    
Precipitation  
Precipitation 0.00 in 0.13 in 4.13 in (1995)
Month to date precipitation T 0.93  
Year to date precipitation 6.81 8.98  
Snow  
Snow 0.00 in - - ()
Month to date snowfall 0.0  
Since 1 July snowfall 0.0  
Snow Depth 0.00 in    
Sea Level Pressure  
Sea Level Pressure 30.24 in    
Wind  
Wind Speed 6 mph (ESE)    
Max Wind Speed 13 mph    
Max Gust Speed 16 mph    
Visibility 10 miles    
Events      
T = Trace of Precipitation, MM = Missing Value Source: NWS Daily Summary

Daily Weather History Graph

Daily Weather History Graph

Search for Another Location

Airport or City:

Trip Planner

Search our weather history database for the weather conditions in past years. The results will help you decide how hot, cold, wet, or windy it might be!

Date:

Astronomy

Mar. 07, 2013 Rise Set
Actual Time 6:38 AM CST 6:21 PM CST
Civil Twilight 6:14 AM CST 6:46 PM CST
Nautical Twilight 5:46 AM CST 7:14 PM CST
Astronomical Twilight 5:18 AM CST 7:42 PM CST
Moon 3:25 AM CST (3/7) 2:23 PM CST (3/7)
Length of Visible Light 12h 31m
Length of Day
11h 43m
Waning Crescent, 20% of the Moon is Illuminated
Mar 7
Waning Crescent
Mar 11
New
Mar 19
First Quarter
Mar 27
Full
Apr 2
Last Quarter

Hourly Weather History & Observations

Time (CST) Temp. Windchill Dew Point Humidity Pressure Visibility Wind Dir Wind Speed Gust Speed Precip Events Conditions
12:53 AM 43.0 °F - 35.1 °F 74% 30.25 in 10.0 mi Calm Calm - N/A   Clear
1:53 AM 39.9 °F 37.8 °F 33.1 °F 77% 30.24 in 10.0 mi East 3.5 mph - N/A   Clear
2:53 AM 37.9 °F 35.5 °F 30.9 °F 76% 30.22 in 10.0 mi SE 3.5 mph - N/A   Clear
3:53 AM 37.9 °F 35.5 °F 32.0 °F 79% 30.22 in 10.0 mi ESE 3.5 mph - N/A   Clear
4:53 AM 39.0 °F - 30.0 °F 70% 30.24 in 10.0 mi Calm Calm - N/A   Clear
5:53 AM 39.0 °F 34.0 °F 30.0 °F 70% 30.25 in 10.0 mi East 6.9 mph - N/A   Clear
6:53 AM 39.0 °F 35.7 °F 30.9 °F 73% 30.28 in 10.0 mi East 4.6 mph - N/A   Clear
7:53 AM 46.0 °F 41.4 °F 33.1 °F 61% 30.30 in 10.0 mi ESE 9.2 mph - N/A   Clear
8:53 AM 51.1 °F - 30.9 °F 46% 30.31 in 10.0 mi ESE 11.5 mph - N/A   Clear
9:53 AM 57.9 °F - 32.0 °F 37% 30.32 in 10.0 mi SE 10.4 mph - N/A   Clear
10:53 AM 61.0 °F - 30.9 °F 32% 30.31 in 10.0 mi ESE 6.9 mph - N/A   Clear
11:53 AM 64.9 °F - 30.0 °F 27% 30.29 in 10.0 mi South 5.8 mph - N/A   Clear
12:53 PM 68.0 °F - 28.9 °F 23% 30.26 in 10.0 mi SSE 9.2 mph - N/A   Clear
1:53 PM 68.0 °F - 30.0 °F 24% 30.23 in 10.0 mi SE 5.8 mph - N/A   Clear
2:53 PM 69.1 °F - 28.0 °F 22% 30.21 in 10.0 mi SSE 5.8 mph - N/A   Clear
3:53 PM 68.0 °F - 28.9 °F 23% 30.19 in 10.0 mi ESE 10.4 mph - N/A   Clear
4:53 PM 68.0 °F - 30.0 °F 24% 30.18 in 10.0 mi East 8.1 mph - N/A   Clear
5:53 PM 63.0 °F - 35.1 °F 35% 30.18 in 10.0 mi East 6.9 mph - N/A   Clear
6:53 PM 55.9 °F - 36.0 °F 47% 30.19 in 10.0 mi East 6.9 mph - N/A   Clear
8:53 PM 53.1 °F - 36.0 °F 52% 30.21 in 10.0 mi SE 5.8 mph - N/A   Clear
9:53 PM 52.0 °F - 37.0 °F 57% 30.22 in 10.0 mi SE 4.6 mph - N/A   Clear
10:53 PM 48.9 °F - 37.9 °F 66% 30.22 in 10.0 mi ESE 4.6 mph - N/A   Clear
11:53 PM 46.0 °F 44.8 °F 37.9 °F 73% 30.21 in 10.0 mi ESE 3.5 mph - N/A   Clear